Vorticity
4 5 5 5 4 4 6 4 4 6 4 4 5 5 5 3 3 5 6 7 7 7 7 7 6 6 6 5 4 5 5 7 10 10 12 10 5 2 1 2 2 1 -3 -6 -3 -0 2 3 2 4 7 9 9 7 5 4 3 2 3 4 5 5 4 4 5 5 5 5 5 5 4 3 3 4 5 6 7 8 8 7 6 4 2 2 4 3 4 6 6 6 4 1 4 4 2 5 8
4 5 5 5 4 3 5 4 4 5 4 4 4 5 5 3 3 4 6 6 7 8 8 9 9 9 8 7 7 8 9 9 9 7 5 6 5 5 6 6 5 3 2 2 3 4 5 7 6 5 6 7 8 7 5 3 3 3 3 3 4 5 5 5 5 5 5 5 5 5 5 4 3 3 3 3 4 6 7 7 8 7 5 5 5 2 2 4 5 6 6 4 4 5 2 2 7
5 5 5 5 4 3 4 4 4 4 4 4 2 3 4 4 4 4 5 5 5 6 5 5 6 6 6 6 7 6 5 4 1 1 -0 0 3 6 7 6 6 6 6 6 5 5 5 6 6 5 3 3 6 7 7 5 3 2 2 3 3 4 4 5 5 5 5 4 4 3 4 4 4 4 3 3 3 4 5 6 6 7 6 7 8 5 3 3 3 3 5 5 4 8 3 -1 4
6 6 6 5 5 4 4 4 5 5 5 4 3 4 4 4 4 3 3 4 3 2 4 4 4 4 4 3 3 2 2 3 2 3 3 3 4 5 5 5 5 5 5 5 5 4 3 4 5 4 4 3 4 5 6 6 5 3 2 2 4 4 4 4 4 4 3 3 3 3 4 3 3 4 4 3 2 3 4 5 5 6 6 6 8 8 6 5 4 3 3 3 3 9 6 0 3
6 6 6 6 6 5 6 5 5 5 6 5 4 5 4 4 4 4 4 4 4 3 3 3 3 3 3 3 3 2 3 4 5 4 3 4 5 3 3 3 4 5 5 5 5 5 5 5 4 4 4 4 4 3 3 4 5 5 2 1 3 4 4 5 5 6 5 3 4 3 3 3 2 3 4 4 3 3 3 4 5 5 6 5 6 9 8 6 7 6 4 3 1 6 7 3 4
7 6 6 7 6 6 6 6 7 7 7 6 5 6 5 6 6 6 6 6 6 6 5 4 4 5 5 6 6 6 5 4 4 4 3 3 3 4 4 3 3 3 4 5 5 5 5 5 5 5 4 4 4 3 3 3 3 4 4 1 1 2 2 4 3 5 6 4 4 4 3 3 2 2 4 4 3 4 3 4 4 4 5 5 5 8 8 5 7 7 6 5 3 4 5 4 5
9 8 8 8 7 7 7 7 8 7 7 6 6 6 7 8 9 9 10 9 10 10 9 9 8 7 6 6 7 7 6 6 5 4 4 3 3 3 3 4 4 4 4 3 4 4 5 5 5 6 6 6 6 7 6 6 6 5 5 4 3 2 1 1 2 2 4 3 4 4 4 4 3 2 3 4 3 4 5 5 5 4 4 6 6 7 8 6 6 8 6 6 5 4 4 3 4
9 8 8 8 8 8 9 9 8 7 6 6 7 9 11 12 12 12 12 11 11 12 12 12 10 8 7 5 5 4 5 5 6 6 6 6 6 5 5 6 5 5 5 4 4 4 5 6 6 6 7 7 7 7 7 7 7 7 6 6 6 6 5 3 3 3 3 3 3 3 3 4 4 3 2 4 4 3 4 5 6 5 4 5 6 6 7 6 6 8 7 5 4 4 5 4 3
8 8 7 7 8 9 9 9 8 7 7 7 9 9 10 10 10 10 10 9 7 7 7 8 7 6 7 5 4 3 5 6 6 7 7 7 7 7 8 7 8 7 7 7 7 7 7 6 6 6 6 6 6 6 6 7 6 7 6 6 6 6 7 6 5 4 5 5 4 5 5 4 4 4 3 3 4 3 4 4 6 6 5 5 6 6 6 6 6 7 7 7 6 3 4 5 3
9 8 8 8 9 10 10 11 10 9 9 10 10 7 7 6 7 7 6 6 5 4 4 5 6 6 7 6 7 7 6 7 7 7 7 7 7 7 7 7 8 8 8 7 7 7 7 6 6 7 7 7 8 7 7 7 7 6 7 7 6 5 6 7 6 6 6 5 5 6 6 6 5 5 5 5 4 3 3 3 5 7 6 6 7 7 6 6 6 7 7 7 8 6 3 3 4
9 8 8 8 9 9 9 9 9 9 9 9 9 8 8 7 7 7 7 7 7 7 7 7 8 8 9 8 9 9 9 9 8 8 8 8 8 8 7 8 8 9 9 9 10 10 11 11 10 9 9 9 10 10 9 10 9 8 9 8 7 6 6 7 8 8 8 7 6 6 6 6 6 5 6 6 7 6 4 3 4 6 5 4 6 7 7 6 5 6 7 6 7 8 6 4 5
6 6 6 6 6 6 6 6 6 6 6 6 7 7 7 7 7 7 7 7 7 7 7 8 8 8 8 9 9 9 9 9 8 8 8 9 9 10 10 10 9 9 8 8 8 8 9 11 12 11 11 11 10 11 11 11 12 12 12 11 10 8 7 7 9 9 10 9 7 6 7 7 7 6 6 6 7 7 7 6 5 6 5 3 3 5 7 6 6 5 6 6 6 7 7 5 5
7 7 6 8 8 7 7 7 7 7 7 8 7 7 7 6 7 7 7 7 8 8 8 8 8 7 7 7 8 8 8 7 8 8 7 7 7 7 8 8 8 7 7 6 5 4 4 4 5 7 8 9 9 9 9 9 10 11 11 12 12 11 11 9 8 9 10 12 11 9 8 8 8 8 9 8 8 7 6 6 6 7 8 6 4 4 5 6 6 5 5 5 6 5 7 6 3
7 8 7 8 8 7 7 7 7 7 7 8 7 7 7 7 7 7 8 8 8 8 8 8 8 9 9 9 8 8 8 8 8 8 8 7 6 6 5 5 5 5 6 5 6 6 5 4 3 4 5 5 6 7 8 8 9 9 9 9 10 10 10 9 8 8 8 10 11 12 11 10 9 8 9 10 11 10 8 7 6 5 7 9 7 6 5 6 6 5 5 5 6 5 5 6 2
5 5 5 6 5 5 6 5 5 5 6 6 5 6 5 5 5 6 6 5 6 6 6 6 7 8 8 8 8 8 8 8 7 7 7 7 6 6 5 5 5 5 6 5 5 6 6 7 6 6 6 5 5 5 6 7 8 8 9 9 9 10 9 9 8 7 6 7 7 9 10 11 10 9 8 8 9 11 11 11 10 7 5 7 8 9 8 7 7 7 6 5 6 6 5 6 4
5 4 4 5 5 6 5 4 4 6 6 5 5 5 5 6 5 5 5 4 5 6 6 6 6 6 6 6 6 6 7 7 6 6 6 5 5 4 4 4 4 4 4 5 4 4 4 4 4 4 4 5 4 4 3 3 3 4 5 6 7 8 8 8 9 8 7 6 6 7 8 8 9 9 8 7 6 7 8 9 11 12 9 7 7 8 10 9 8 8 7 6 6 7 6 5 5
5 5 6 6 6 6 5 5 6 6 6 5 5 6 7 7 7 6 6 7 7 6 6 5 5 4 5 6 5 5 5 5 5 4 4 3 3 4 4 4 4 3 2 2 2 2 2 2 3 2 2 3 4 4 4 3 3 3 2 2 3 4 5 6 6 7 7 7 7 7 7 7 7 8 9 8 7 6 6 5 6 10 11 10 8 7 9 10 10 9 8 7 7 8 7 6 6
6 6 6 7 6 6 6 6 6 6 6 6 6 6 7 7 7 8 8 8 8 8 7 6 6 6 5 5 5 5 4 4 4 4 4 4 4 4 4 5 5 4 4 3 2 3 3 3 4 4 4 4 4 5 5 5 4 5 5 4 3 3 4 5 5 5 6 6 5 6 6 6 7 7 7 8 9 8 7 6 4 5 7 9 9 7 7 9 10 11 11 9 8 8 8 7 7
7 7 7 7 7 7 7 6 7 7 7 7 7 7 7 7 7 7 7 7 7 7 7 7 7 6 6 6 6 6 6 6 6 6 6 6 5 5 6 6 7 7 7 7 7 7 6 6 6 6 6 6 7 7 7 7 7 7 7 7 7 6 5 6 6 6 7 6 5 5 5 5 5 5 6 6 8 9 8 8 6 4 5 6 7 7 6 6 8 9 10 11 9 8 8 8 8
7 8 7 8 7 8 7 7 8 8 8 8 8 8 7 7 7 7 6 7 8 7 7 6 6 6 6 7 7 8 8 8 8 8 8 8 8 8 8 8 8 9 9 9 9 10 10 10 9 9 8 8 8 8 8 8 8 8 8 8 8 8 8 7 7 7 7 8 7 6 6 5 5 4 5 5 5 7 8 8 8 6 5 4 6 7 6 5 6 7 8 9 10 9 9 9 9
7 8 7 8 7 8 8 8 9 8 9 9 8 8 7 7 7 7 8 9 9 9 7 5 6 7 7 7 8 8 9 9 9 9 9 9 10 10 10 10 10 9 9 9 9 9 9 10 10 10 10 9 8 7 7 7 7 7 7 7 7 7 7 7 7 7 7 7 8 8 8 7 7 6 5 4 4 4 6 7 8 7 7 6 5 6 7 5 5 6 7 8 9 9 9 9 10
7 7 7 7 7 7 7 7 8 8 8 9 8 8 8 8 8 9 11 12 12 10 6 6 8 8 8 8 8 8 8 8 8 8 8 8 9 9 9 8 8 8 7 7 7 7 7 8 8 8 8 8 8 7 7 6 6 6 6 6 6 7 7 7 6 6 5 5 6 7 8 8 8 8 7 6 5 4 4 5 6 7 7 8 7 6 7 6 4 5 7 8 9 9 9 8 9
7 7 7 8 7 7 7 8 8 8 8 8 7 7 8 8 8 9 10 10 8 6 5 8 9 7 7 7 7 7 7 7 7 6 7 7 7 8 8 9 9 9 9 8 8 8 7 7 6 6 7 7 7 7 7 7 7 6 6 6 6 7 7 8 8 7 6 5 4 3 4 6 6 8 8 8 7 6 4 4 5 5 5 6 8 8 8 7 5 4 5 6 8 8 9 8 8
8 8 8 7 7 7 8 8 8 8 8 7 8 8 9 9 8 9 9 7 5 5 6 8 7 6 6 6 6 6 6 6 6 7 7 8 8 9 9 9 8 8 8 7 7 7 6 6 6 6 5 6 6 6 7 7 7 7 7 7 6 6 6 6 7 8 8 7 7 6 4 4 4 4 6 7 8 8 7 5 4 4 4 4 5 6 7 8 7 5 5 6 7 8 8 8 7
9 8 6 7 8 9 9 9 8 8 8 8 10 10 9 9 10 9 8 7 7 8 8 7 6 7 7 7 6 6 6 6 6 7 7 7 7 7 7 6 6 6 6 6 6 7 7 7 7 7 7 6 6 6 6 7 7 7 6 6 6 6 6 5 6 6 7 8 8 8 8 7 5 4 4 4 5 7 7 7 6 5 4 4 4 5 4 5 8 7 5 4 6 7 8 8 6
10 8 8 9 8 7 7 9 8 7 8 9 8 9 9 10 11 10 8 8 8 8 7 7 8 8 8 8 7 6 6 6 6 6 6 5 5 5 5 5 5 6 6 7 7 8 8 8 9 8 8 8 7 7 7 7 7 8 7 7 6 6 5 5 6 6 6 7 7 7 8 8 8 7 6 5 4 4 5 5 6 6 5 5 4 5 5 3 4 6 7 4 4 5 7 9 7
14 13 13 11 11 11 10 9 8 7 7 7 6 5 6 8 10 8 7 8 6 7 8 9 10 9 9 8 8 8 8 8 8 8 8 7 7 7 7 7 7 7 7 7 7 8 8 9 11 11 10 10 11 10 9 9 9 9 9 9 9 8 7 6 6 6 6 6 6 6 6 6 7 8 8 8 7 5 4 3 3 4 5 5 5 5 6 6 3 2 5 6 5 4 4 7 9
15 17 16 13 17 16 14 12 11 12 10 8 9 7 4 5 8 6 6 7 5 8 10 9 10 9 9 8 9 10 10 11 11 12 12 12 12 11 11 10 9 8 8 8 7 7 8 10 11 11 11 11 11 11 10 10 10 10 10 10 10 10 10 10 8 7 6 6 6 6 6 6 6 6 6 6 7 7 6 5 4 3 2 3 4 4 5 7 7 3 2 4 6 5 3 3 7
13 16 13 12 16 11 9 12 10 9 10 9 10 10 6 4 6 4 4 5 6 8 7 7 8 7 6 7 9 10 10 11 11 12 13 13 13 13 13 12 12 12 12 11 11 11 11 11 12 12 12 11 10 10 8 8 7 8 8 9 8 9 9 9 10 9 8 7 7 6 5 6 6 5 5 5 6 6 6 6 6 6 4 2 2 2 3 4 7 7 5 3 4 6 6 3 3
11 13 11 12 17 16 10 7 7 6 8 7 7 9 6 4 7 7 6 7 8 8 7 7 7 6 6 6 7 7 8 9 11 12 12 12 13 13 13 13 13 13 12 12 11 12 13 13 13 12 10 9 8 6 6 7 7 7 7 8 8 8 8 8 7 7 8 9 8 8 6 5 5 4 5 5 5 5 6 6 6 5 6 5 3 2 2 2 3 5 7 5 3 3 6 6 3
9 9 14 11 13 27 22 9 9 9 11 10 9 11 8 7 10 9 8 9 7 6 8 9 8 7 8 8 9 9 9 9 9 10 10 11 12 13 13 13 15 17 18 19 17 14 13 12 11 9 7 6 6 4 4 3 4 4 4 4 6 7 8 8 8 7 6 6 6 7 7 6 5 4 4 3 3 4 4 5 5 4 4 5 5 4 3 2 2 2 4 6 6 5 3 4 6
6 4 11 8 4 20 27 20 17 14 17 19 14 13 14 14 12 8 7 9 8 6 8 8 8 9 9 10 10 11 12 13 13 13 13 13 13 15 16 16 15 15 15 17 20 19 16 13 9 7 4 2 1 1 1 1 1 1 1 1 2 3 4 6 8 9 9 7 7 6 6 6 5 5 5 4 3 2 2 3 5 5 5 5 4 5 4 3 2 2 3 3 4 8 8 3 4
4 1 3 4 1 5 13 15 13 11 15 21 18 14 17 18 13 10 8 9 9 7 8 8 8 11 12 13 14 15 15 16 17 18 17 17 16 15 12 9 5 2 2 4 8 12 13 14 14 13 10 6 3 -0 -2 -3 -2 -0 2 2 2 2 2 3 3 5 6 7 7 8 8 7 7 7 7 7 6 4 3 1 2 4 5 6 5 5 5 5 3 2 2 4 3 3 8 7 4
9 8 6 5 5 3 5 6 4 4 6 13 19 15 15 17 17 17 14 14 14 12 13 14 15 16 16 18 18 18 19 19 19 18 17 15 12 9 6 4 4 3 3 2 1 2 4 6 7 7 7 6 3 -1 -5 -5 -2 2 6 8 9 9 8 7 5 4 4 4 5 5 6 7 6 7 6 7 8 8 8 7 5 4 3 5 7 7 7 7 7 5 2 2 4 2 3 6 6
9 11 10 8 8 6 5 5 5 6 5 8 12 12 13 16 19 23 25 25 22 19 19 18 17 17 17 17 17 19 19 18 14 10 8 6 5 7 10 12 12 11 10 9 9 8 7 5 4 3 3 3 1 0 0 1 3 5 7 9 10 12 12 11 10 8 7 7 6 6 6 7 7 8 7 6 6 6 7 9 10 8 6 4 4 5 6 6 7 9 7 3 2 3 3 3 5
9 11 10 10 11 9 6 6 8 8 6 7 8 8 9 11 15 22 26 27 27 26 24 20 17 15 14 13 14 15 12 8 6 7 8 9 11 12 12 12 10 10 10 10 11 10 10 9 8 8 7 8 7 7 7 7 6 5 5 5 5 5 6 7 8 8 8 7 7 7 6 7 7 8 9 9 9 8 5 4 5 7 8 8 6 4 2 3 3 4 7 8 5 4 3 4 4
9 12 11 13 14 13 9 6 8 9 7 6 7 7 8 10 14 16 16 20 24 23 20 20 21 20 19 18 16 11 8 10 11 12 13 12 12 10 7 7 7 7 7 7 8 7 8 8 8 8 8 9 10 10 10 9 9 8 7 5 3 2 -1 -1 -1 -1 1 3 3 4 5 4 4 4 6 8 10 11 10 7 5 4 5 7 9 9 6 4 2 1 1 4 7 6 5 4 4
7 10 12 15 15 15 15 12 9 10 10 8 8 11 13 15 15 14 15 17 14 12 16 21 23 25 25 23 14 5 6 12 11 10 11 9 9 9 9 9 8 8 8 7 6 6 6 7 8 9 9 9 10 10 11 10 10 9 10 9 7 7 4 2 -0 -3 -3 -2 -1 0 2 3 3 3 3 5 6 8 10 10 9 7 4 3 3 6 9 8 6 3 1 0 2 5 5 4 5
4 8 11 14 14 13 15 19 16 10 10 11 13 14 15 16 17 18 17 15 14 17 20 20 24 26 20 11 3 -1 3 7 10 12 13 14 14 12 11 11 12 15 17 17 16 15 12 9 7 5 5 5 6 8 9 9 9 8 9 9 8 8 8 7 5 3 1 1 1 0 1 1 1 1 1 1 2 3 6 8 9 10 8 6 3 1 3 7 10 8 5 2 -1 1 3 3 4
5 5 10 12 14 11 7 14 18 14 13 14 15 14 15 16 16 16 15 15 19 19 16 17 21 18 7 1 -1 1 6 8 11 12 13 13 11 10 12 14 18 19 17 15 13 11 9 6 4 3 4 4 5 7 7 8 8 7 7 7 8 9 10 8 5 5 5 5 6 5 5 5 3 3 2 2 1 1 2 3 4 6 8 9 9 6 1 1 5 9 10 9 3 -0 0 2 3
11 8 10 10 13 13 9 12 15 17 18 15 15 15 15 16 15 15 17 19 19 17 16 18 14 6 1 1 2 5 9 9 9 10 13 14 11 10 11 10 11 9 6 6 7 8 7 7 9 11 13 13 12 12 12 12 11 9 7 6 7 9 11 11 9 8 7 7 8 8 8 7 6 6 5 4 4 3 3 3 2 2 4 6 8 9 7 3 1 2 5 10 11 7 2 -0 1
13 11 11 11 11 10 12 16 15 15 17 14 17 18 16 18 19 18 17 17 15 12 12 11 5 3 4 4 6 8 8 7 11 14 14 10 7 7 6 5 7 9 10 11 10 9 9 10 12 12 12 12 10 11 14 16 18 17 13 11 10 9 9 9 9 11 10 10 11 11 11 10 9 9 8 7 7 7 6 6 5 4 2 3 5 7 8 8 6 3 1 2 7 11 11 5 1
12 9 10 13 10 7 12 21 19 12 13 17 16 14 16 20 17 16 17 14 10 8 7 7 7 8 8 8 8 7 7 12 16 15 10 6 7 9 8 7 8 8 8 5 2 1 1 5 7 5 4 5 6 11 15 17 20 22 20 20 20 19 19 15 11 11 11 10 10 12 14 14 14 14 14 14 13 13 12 10 8 7 6 3 3 5 6 6 6 7 6 2 -1 2 9 11 7
12 7 10 13 9 8 12 20 23 15 15 23 19 15 17 19 17 16 15 10 8 10 10 10 10 9 9 9 8 13 17 17 15 12 10 9 11 11 8 5 5 6 4 1 -2 -5 -4 1 4 3 3 7 11 16 20 21 24 28 28 28 29 30 33 34 30 27 26 24 21 20 20 21 24 25 26 26 25 25 23 21 19 16 14 11 7 6 7 7 6 5 6 7 4 -1 -1 5 9
10 6 8 12 10 10 15 20 21 19 25 26 19 19 18 16 20 15 9 11 12 12 12 12 11 11 15 10 7 16 16 9 8 8 7 8 8 6 3 3 5 4 -1 -4 -4 -6 -4 3 6 8 10 15 19 20 22 23 25 27 29 30 31 30 31 36 38 36 36 36 36 36 35 35 36 38 39 38 37 37 37 37 36 34 32 28 23 18 15 13 11 9 6 6 7 6 1 -1 3
8 4 5 14 12 8 18 21 12 17 33 30 18 19 16 11 18 13 8 13 12 14 18 17 14 14 17 12 6 8 7 3 4 2 0 1 2 1 0 1 -1 -3 -4 -3 -1 2 6 11 14 17 19 19 20 19 19 19 19 20 22 24 26 26 25 27 29 30 32 34 37 39 41 42 44 42 41 41 40 41 43 44 45 46 47 46 43 39 35 30 26 21 16 11 8 7 6 2 -1
9 3 -2 11 15 12 24 25 12 12 23 27 21 17 13 8 12 13 12 14 14 19 21 17 16 12 10 9 4 3 2 2 1 -2 -2 -1 -1 -0 -0 -0 -1 1 8 11 12 16 17 19 19 19 18 16 16 15 14 16 17 19 21 21 24 25 24 24 25 26 28 30 33 36 39 40 39 35 32 33 34 34 34 36 38 39 41 45 47 48 47 45 43 39 33 26 18 13 9 6 2
11 7 -3 0 4 7 19 22 17 11 14 25 21 12 15 11 10 15 14 17 20 21 19 15 13 8 6 7 4 1 0 -1 -1 -0 0 0 1 4 5 8 11 15 19 20 20 20 18 18 16 14 14 14 15 16 19 22 24 24 24 24 26 27 26 25 25 28 30 32 34 36 36 31 25 23 23 23 25 26 27 27 30 32 33 35 37 40 42 42 43 44 44 41 36 29 22 15 10
10 9 5 1 -7 -6 5 10 12 5 7 28 23 8 14 13 13 18 13 19 28 22 17 15 12 8 8 8 2 -0 -0 -1 2 4 6 9 11 15 16 18 19 19 18 17 16 15 14 14 15 16 20 22 25 28 30 31 29 29 28 28 29 28 25 26 29 34 35 33 32 30 25 21 20 22 24 26 28 29 30 31 33 34 34 34 34 35 37 38 38 39 41 43 44 43 38 31 24
10 9 11 10 1 -1 2 5 12 2 -4 22 27 10 11 15 17 15 11 26 34 22 17 13 8 6 2 0 -1 1 6 9 13 15 16 17 17 17 17 16 15 15 16 18 19 21 22 25 28 31 34 36 37 37 35 33 33 32 32 31 28 25 26 32 35 35 31 26 25 23 20 21 25 28 29 30 30 27 29 32 32 31 31 32 34 35 36 37 37 38 39 40 42 45 46 43 40
12 13 15 15 10 10 12 10 14 5 -5 13 22 12 15 19 16 12 17 33 32 19 14 5 -1 -0 -0 4 9 13 18 17 16 16 17 19 20 21 22 24 26 27 28 31 32 35 35 38 40 40 40 39 38 36 34 33 32 30 28 26 26 27 32 35 31 25 21 21 21 19 20 23 25 26 25 22 19 18 21 23 22 24 26 27 28 30 33 35 36 38 40 41 41 41 44 45 46
10 12 15 18 13 7 11 14 15 12 8 14 14 11 22 21 12 16 25 30 22 8 -2 -5 1 7 12 17 19 18 18 17 20 25 31 35 35 35 35 35 36 36 36 37 36 37 37 38 39 36 36 36 34 32 30 28 28 28 30 31 32 33 31 26 19 15 15 17 17 14 16 18 17 15 14 10 8 9 11 11 11 15 18 20 20 21 23 28 32 35 38 42 43 42 42 43 42
8 9 9 16 21 14 9 6 5 8 13 19 13 7 20 22 10 17 25 20 10 -2 -6 5 17 18 18 19 15 16 22 29 37 39 40 39 34 32 32 30 30 30 30 30 30 31 31 31 32 31 32 32 30 30 30 32 34 35 34 31 27 22 16 12 9 8 9 11 12 12 13 12 9 8 7 6 6 6 7 7 7 8 9 11 12 13 15 16 19 24 29 35 40 40 40 41 39
11 12 8 7 14 21 23 11 0 0 3 13 19 15 21 21 10 14 23 14 2 1 10 20 21 16 15 15 16 23 32 36 36 33 32 31 29 30 31 29 29 29 28 28 29 30 30 30 31 31 31 30 29 29 28 27 26 22 17 13 10 9 8 9 9 8 8 9 10 10 11 10 7 5 5 6 7 9 10 9 7 8 9 8 9 11 13 14 14 15 18 24 29 31 33 35 35
15 15 13 12 7 9 24 23 5 -0 -2 -3 11 27 31 18 8 17 19 9 5 12 20 20 15 15 15 19 28 34 34 30 27 28 29 30 31 33 34 33 33 32 32 31 31 31 31 30 28 26 23 20 17 15 13 12 12 10 9 8 9 10 10 9 10 10 9 10 10 10 10 11 9 6 6 8 9 11 12 8 7 11 10 7 7 9 10 14 16 15 14 16 18 21 25 29 32
15 15 13 17 15 8 25 35 14 2 6 -5 -6 21 37 16 7 19 16 9 15 18 18 15 13 18 23 30 35 30 27 26 24 25 26 28 31 31 32 33 33 32 32 31 30 28 24 20 17 14 11 9 8 8 8 8 9 10 10 11 12 13 13 11 11 11 9 9 10 9 8 9 11 8 6 8 11 12 11 8 9 12 10 7 7 8 11 15 18 17 15 14 15 16 18 22 28
12 15 10 11 9 1 12 32 27 15 15 7 -10 1 28 23 10 16 15 15 21 17 13 13 17 27 33 32 28 22 23 23 20 22 24 26 28 28 29 29 28 27 25 22 19 14 11 9 8 8 7 8 8 8 9 8 8 9 9 10 10 10 11 12 12 14 14 14 14 13 11 9 10 11 8 7 12 14 11 9 13 12 8 8 8 9 11 14 16 18 17 16 17 17 17 18 21
12 13 12 11 11 2 -5 1 19 24 17 18 6 -4 18 26 11 15 21 17 18 15 11 16 27 35 31 24 23 23 22 20 19 23 25 25 26 24 23 22 19 17 13 10 9 6 7 7 7 9 9 8 9 8 8 8 8 9 8 8 9 8 8 9 10 12 13 14 15 18 18 14 10 11 11 9 11 14 12 12 14 11 7 10 11 11 11 11 14 17 18 17 18 18 18 18 18
Height
5794 5793 5793 5792 5791 5790 5789 5788 5787 5787 5786 5786 5787 5786 5784 5782 5782 5783 5783 5782 5781 5781 5780 5779 5779 5779 5778 5777 5777 5777 5777 5776 5776 5775 5774 5774 5774 5773 5772 5771 5770 5769 5768 5768 5768 5768 5768 5768 5768 5768 5768 5768 5768 5768 5769 5769 5770 5771 5772 5772 5773 5773 5774 5774 5774 5775 5776 5777 5778 5778 5779 5780 5782 5783 5784 5785 5785 5786 5787 5788 5790 5791 5792 5792 5792 5794 5794 5795 5797 5798 5801 5803 5805 5807 5808 5809 5808
5793 5792 5791 5790 5789 5788 5787 5787 5785 5785 5784 5784 5785 5782 5780 5780 5780 5780 5779 5779 5778 5778 5777 5776 5776 5775 5775 5774 5774 5773 5772 5772 5772 5771 5770 5770 5769 5769 5768 5767 5765 5764 5763 5763 5764 5764 5764 5764 5764 5763 5763 5763 5763 5764 5764 5765 5766 5767 5767 5767 5768 5769 5770 5770 5770 5770 5771 5772 5773 5773 5774 5776 5777 5777 5779 5781 5782 5782 5783 5784 5785 5787 5788 5788 5788 5790 5790 5791 5793 5794 5797 5799 5801 5802 5805 5806 5803
5791 5790 5790 5789 5788 5786 5786 5785 5784 5784 5783 5783 5782 5779 5778 5778 5777 5777 5776 5776 5775 5774 5773 5773 5772 5771 5771 5770 5771 5769 5768 5768 5768 5767 5766 5765 5765 5764 5763 5762 5761 5760 5759 5759 5759 5759 5759 5759 5759 5759 5759 5759 5759 5760 5760 5760 5761 5762 5763 5763 5763 5764 5765 5766 5765 5766 5767 5767 5768 5769 5770 5771 5772 5772 5774 5776 5778 5778 5779 5779 5780 5782 5783 5784 5784 5785 5786 5786 5788 5790 5792 5794 5796 5797 5800 5802 5799
5789 5789 5788 5787 5786 5784 5784 5783 5782 5782 5781 5780 5779 5777 5776 5775 5775 5774 5773 5772 5772 5771 5770 5769 5768 5767 5767 5766 5766 5765 5765 5764 5763 5763 5762 5761 5760 5759 5758 5757 5756 5756 5756 5755 5755 5754 5754 5754 5754 5754 5754 5754 5755 5755 5756 5756 5756 5757 5758 5759 5759 5760 5761 5762 5761 5761 5762 5763 5763 5764 5765 5766 5767 5767 5768 5771 5773 5774 5774 5775 5776 5777 5778 5779 5779 5780 5781 5782 5783 5785 5788 5790 5792 5793 5795 5797 5796
5787 5786 5785 5784 5783 5782 5781 5781 5780 5779 5778 5776 5776 5775 5774 5772 5772 5771 5769 5768 5768 5768 5767 5766 5765 5764 5763 5762 5762 5761 5761 5760 5759 5758 5757 5756 5755 5755 5754 5753 5752 5752 5752 5751 5751 5750 5750 5750 5749 5749 5749 5749 5750 5750 5751 5751 5752 5752 5754 5754 5754 5755 5756 5757 5757 5757 5757 5758 5759 5759 5760 5761 5762 5762 5762 5765 5767 5769 5770 5769 5770 5772 5773 5774 5774 5774 5776 5778 5778 5780 5782 5785 5787 5788 5790 5792 5792
5785 5783 5783 5782 5781 5780 5778 5778 5777 5777 5775 5773 5773 5773 5771 5770 5768 5767 5766 5765 5764 5763 5763 5762 5761 5760 5759 5758 5757 5756 5756 5755 5754 5753 5752 5751 5751 5750 5749 5748 5748 5747 5747 5747 5747 5746 5745 5745 5744 5744 5744 5745 5745 5745 5746 5747 5748 5748 5748 5749 5749 5750 5751 5751 5752 5752 5752 5753 5754 5754 5755 5756 5757 5758 5757 5759 5761 5763 5765 5764 5765 5767 5768 5769 5769 5770 5771 5773 5774 5775 5776 5779 5782 5784 5785 5786 5786
5782 5781 5780 5779 5778 5777 5776 5775 5775 5773 5772 5770 5769 5769 5768 5767 5765 5764 5763 5761 5760 5759 5758 5757 5757 5755 5754 5754 5752 5751 5750 5749 5748 5748 5747 5746 5746 5745 5744 5743 5743 5742 5742 5742 5742 5742 5741 5740 5740 5740 5739 5740 5740 5740 5741 5742 5743 5744 5743 5744 5744 5745 5746 5746 5747 5747 5747 5748 5748 5749 5750 5751 5752 5753 5753 5753 5755 5757 5759 5759 5760 5762 5763 5764 5764 5765 5766 5768 5769 5770 5771 5773 5776 5779 5781 5782 5781
5780 5779 5778 5776 5775 5775 5774 5773 5772 5770 5769 5768 5767 5766 5765 5764 5762 5761 5759 5758 5757 5755 5754 5752 5752 5750 5749 5749 5747 5746 5745 5744 5743 5743 5742 5741 5741 5740 5739 5739 5738 5737 5737 5737 5737 5737 5737 5736 5736 5736 5735 5735 5735 5735 5736 5736 5737 5738 5739 5739 5739 5740 5740 5741 5741 5741 5742 5743 5744 5744 5745 5746 5746 5747 5748 5749 5750 5751 5753 5754 5755 5756 5758 5758 5759 5760 5761 5763 5764 5765 5766 5768 5770 5773 5776 5777 5776
5778 5776 5775 5774 5773 5772 5771 5770 5769 5767 5766 5765 5764 5764 5762 5761 5759 5757 5756 5754 5753 5751 5749 5748 5746 5745 5744 5744 5742 5742 5741 5740 5739 5738 5737 5737 5736 5735 5734 5734 5733 5733 5733 5732 5732 5732 5732 5732 5731 5731 5731 5731 5731 5731 5731 5731 5732 5732 5733 5734 5735 5735 5735 5735 5736 5736 5737 5738 5739 5739 5740 5740 5741 5742 5743 5744 5745 5746 5747 5748 5749 5750 5752 5753 5753 5754 5756 5757 5759 5760 5760 5763 5765 5767 5770 5772 5771
5776 5774 5773 5772 5771 5770 5769 5768 5767 5765 5764 5763 5762 5760 5759 5757 5755 5753 5752 5750 5749 5747 5745 5744 5742 5741 5740 5739 5739 5738 5737 5735 5734 5734 5733 5732 5731 5730 5729 5729 5728 5728 5727 5727 5727 5727 5727 5727 5726 5726 5726 5726 5726 5726 5726 5726 5727 5727 5727 5728 5729 5730 5730 5730 5730 5730 5731 5732 5733 5733 5734 5735 5736 5737 5738 5738 5739 5740 5741 5742 5743 5744 5746 5748 5748 5748 5750 5751 5753 5754 5755 5757 5759 5761 5764 5767 5767
5774 5773 5771 5770 5769 5768 5767 5766 5764 5762 5761 5760 5758 5757 5755 5753 5751 5749 5748 5746 5745 5743 5742 5740 5738 5737 5736 5735 5735 5734 5733 5731 5730 5729 5728 5727 5726 5725 5724 5724 5723 5722 5722 5722 5722 5721 5721 5721 5721 5721 5721 5721 5721 5721 5721 5721 5721 5721 5722 5722 5723 5724 5725 5725 5725 5725 5725 5726 5728 5727 5727 5729 5730 5731 5731 5732 5733 5735 5735 5736 5737 5738 5740 5742 5742 5742 5744 5745 5747 5749 5750 5751 5753 5756 5758 5761 5762
5773 5771 5770 5768 5767 5765 5764 5763 5761 5759 5758 5757 5755 5753 5751 5749 5748 5746 5744 5742 5741 5739 5738 5736 5734 5733 5732 5731 5730 5729 5727 5726 5725 5724 5723 5723 5721 5720 5720 5719 5718 5717 5716 5716 5716 5716 5716 5716 5716 5716 5716 5715 5715 5715 5715 5715 5715 5716 5716 5716 5717 5717 5718 5719 5719 5719 5719 5720 5721 5721 5721 5723 5724 5724 5725 5726 5727 5728 5730 5730 5730 5731 5733 5735 5736 5736 5737 5738 5741 5743 5744 5745 5747 5750 5751 5755 5757
5771 5770 5768 5767 5765 5763 5761 5760 5759 5757 5755 5753 5751 5750 5748 5746 5744 5742 5740 5738 5736 5735 5733 5731 5729 5728 5727 5726 5725 5723 5722 5721 5720 5719 5718 5717 5717 5716 5715 5714 5713 5712 5712 5711 5710 5710 5710 5710 5710 5710 5710 5710 5710 5710 5709 5709 5710 5710 5710 5710 5710 5711 5712 5712 5712 5713 5713 5714 5714 5715 5715 5716 5717 5718 5718 5719 5720 5721 5723 5723 5724 5725 5726 5728 5729 5730 5731 5732 5734 5736 5738 5738 5741 5744 5745 5748 5752
5770 5768 5766 5765 5763 5761 5759 5758 5756 5754 5753 5751 5748 5747 5745 5743 5741 5739 5736 5734 5732 5730 5728 5726 5725 5723 5722 5721 5720 5718 5716 5715 5714 5713 5713 5712 5711 5710 5710 5709 5708 5707 5707 5706 5705 5705 5705 5704 5704 5704 5704 5704 5704 5704 5703 5703 5704 5703 5703 5704 5704 5705 5705 5705 5706 5706 5707 5708 5708 5708 5709 5710 5711 5711 5712 5712 5713 5714 5716 5716 5717 5719 5719 5721 5723 5723 5724 5725 5727 5729 5731 5732 5734 5737 5739 5741 5746
5768 5767 5765 5763 5761 5759 5757 5755 5753 5752 5750 5748 5746 5744 5742 5740 5738 5735 5733 5731 5729 5726 5724 5722 5720 5718 5717 5716 5714 5713 5711 5710 5709 5708 5707 5706 5706 5705 5704 5703 5702 5702 5701 5701 5700 5700 5699 5699 5699 5698 5698 5698 5698 5698 5697 5697 5697 5697 5697 5698 5698 5698 5698 5699 5699 5700 5700 5701 5701 5702 5702 5703 5704 5705 5705 5706 5706 5707 5708 5709 5711 5712 5712 5714 5716 5716 5717 5719 5720 5722 5724 5725 5727 5730 5732 5734 5738
5767 5765 5763 5761 5759 5757 5754 5752 5750 5749 5747 5745 5742 5740 5738 5736 5734 5732 5729 5727 5725 5722 5720 5717 5715 5713 5712 5710 5709 5707 5706 5705 5704 5703 5702 5701 5700 5699 5699 5698 5697 5696 5696 5695 5695 5694 5693 5693 5692 5692 5692 5692 5692 5691 5691 5690 5690 5690 5690 5690 5691 5691 5691 5691 5692 5693 5693 5694 5694 5695 5696 5697 5697 5698 5699 5699 5700 5700 5701 5703 5704 5704 5705 5707 5709 5710 5710 5712 5714 5715 5717 5718 5720 5722 5724 5726 5730
5764 5762 5760 5758 5756 5754 5751 5749 5747 5745 5743 5740 5738 5736 5734 5731 5729 5727 5725 5723 5720 5718 5715 5713 5710 5708 5706 5704 5703 5701 5700 5699 5698 5697 5696 5695 5695 5694 5693 5692 5692 5691 5690 5690 5689 5688 5688 5687 5686 5686 5686 5685 5685 5684 5684 5684 5683 5683 5683 5683 5683 5684 5684 5684 5685 5685 5686 5686 5687 5687 5688 5689 5690 5691 5692 5692 5693 5693 5695 5696 5697 5697 5698 5700 5701 5703 5703 5705 5707 5708 5710 5712 5713 5714 5716 5719 5723
5762 5760 5757 5755 5752 5750 5747 5745 5743 5741 5739 5736 5734 5732 5729 5727 5724 5722 5720 5717 5715 5712 5710 5707 5705 5702 5700 5698 5697 5695 5694 5693 5692 5691 5690 5689 5688 5687 5687 5686 5686 5685 5684 5684 5683 5682 5682 5681 5680 5680 5679 5678 5677 5676 5677 5676 5676 5676 5676 5676 5676 5676 5676 5676 5677 5677 5678 5679 5679 5680 5680 5682 5682 5684 5685 5686 5686 5687 5688 5689 5691 5690 5691 5692 5694 5696 5697 5698 5699 5701 5703 5704 5706 5708 5709 5713 5715
5759 5757 5754 5752 5749 5746 5744 5741 5739 5737 5734 5732 5729 5727 5725 5722 5719 5717 5714 5711 5709 5706 5704 5702 5699 5696 5694 5692 5691 5689 5688 5687 5685 5685 5684 5683 5682 5681 5680 5679 5679 5678 5678 5678 5676 5675 5675 5674 5674 5673 5672 5671 5670 5669 5669 5669 5668 5668 5668 5668 5668 5668 5668 5668 5669 5670 5670 5671 5671 5672 5673 5674 5675 5676 5677 5678 5679 5680 5681 5682 5684 5684 5684 5685 5686 5688 5690 5691 5692 5694 5695 5697 5699 5701 5703 5706 5708
5757 5754 5751 5749 5746 5743 5740 5737 5735 5733 5730 5728 5725 5722 5720 5717 5714 5711 5709 5706 5703 5700 5698 5695 5693 5690 5688 5686 5685 5683 5681 5680 5679 5678 5677 5676 5675 5674 5673 5672 5672 5671 5671 5670 5669 5668 5667 5667 5666 5665 5665 5664 5663 5662 5662 5661 5661 5660 5660 5660 5661 5661 5661 5661 5661 5662 5663 5663 5663 5664 5665 5666 5667 5668 5669 5671 5672 5672 5673 5675 5676 5677 5677 5678 5679 5680 5682 5684 5685 5687 5688 5689 5691 5694 5697 5700 5701
5754 5751 5748 5746 5743 5740 5737 5734 5732 5729 5726 5723 5720 5718 5715 5712 5709 5706 5703 5701 5698 5695 5692 5689 5687 5684 5682 5680 5679 5677 5675 5674 5672 5671 5670 5669 5669 5668 5666 5666 5665 5664 5664 5662 5660 5659 5659 5659 5658 5658 5657 5656 5656 5655 5655 5654 5653 5653 5653 5653 5653 5653 5653 5653 5653 5654 5655 5655 5655 5656 5657 5658 5659 5660 5661 5662 5664 5665 5666 5667 5668 5670 5670 5671 5672 5673 5674 5677 5679 5680 5681 5682 5684 5686 5690 5693 5695
5751 5748 5745 5743 5740 5737 5734 5731 5728 5725 5722 5719 5716 5713 5710 5707 5704 5701 5698 5696 5693 5689 5686 5683 5681 5679 5677 5675 5673 5671 5669 5668 5666 5665 5664 5663 5662 5661 5660 5659 5658 5657 5657 5655 5653 5652 5651 5651 5650 5650 5649 5649 5648 5648 5647 5647 5646 5646 5645 5645 5645 5645 5645 5645 5645 5646 5646 5647 5648 5648 5648 5649 5651 5652 5653 5654 5655 5657 5658 5659 5661 5662 5663 5663 5665 5666 5667 5669 5672 5673 5674 5676 5677 5679 5682 5686 5688
5749 5746 5743 5740 5737 5734 5731 5727 5724 5721 5717 5714 5711 5708 5705 5702 5699 5696 5693 5690 5687 5683 5680 5678 5676 5673 5671 5669 5667 5665 5663 5662 5660 5660 5659 5657 5656 5654 5653 5652 5651 5650 5649 5648 5646 5645 5644 5643 5643 5642 5642 5641 5640 5640 5640 5639 5639 5638 5637 5637 5637 5636 5636 5636 5636 5637 5638 5638 5639 5640 5641 5641 5642 5643 5644 5646 5647 5648 5650 5651 5653 5654 5655 5656 5657 5659 5660 5661 5664 5665 5667 5668 5670 5673 5676 5678 5681
5747 5743 5740 5737 5734 5730 5727 5724 5720 5717 5713 5710 5707 5703 5700 5696 5693 5690 5687 5684 5681 5677 5674 5672 5669 5667 5664 5662 5659 5657 5656 5654 5654 5654 5652 5650 5649 5647 5646 5645 5644 5643 5642 5641 5639 5638 5636 5636 5635 5634 5633 5633 5632 5631 5631 5631 5630 5630 5629 5629 5629 5628 5628 5628 5628 5628 5629 5629 5630 5632 5632 5633 5634 5635 5635 5637 5638 5639 5641 5642 5644 5645 5647 5648 5648 5650 5653 5654 5656 5657 5659 5661 5663 5665 5668 5670 5673
5744 5740 5737 5734 5730 5727 5723 5720 5716 5712 5709 5706 5702 5699 5695 5691 5687 5684 5681 5678 5675 5672 5669 5666 5663 5659 5656 5654 5652 5650 5649 5648 5647 5647 5644 5643 5641 5640 5638 5637 5636 5635 5634 5633 5632 5630 5629 5628 5627 5626 5625 5624 5623 5623 5622 5622 5622 5621 5621 5621 5621 5620 5620 5620 5620 5619 5620 5620 5621 5622 5623 5624 5625 5626 5627 5628 5629 5630 5631 5633 5635 5636 5638 5640 5641 5642 5644 5646 5648 5649 5651 5653 5655 5657 5660 5663 5665
5741 5738 5734 5731 5727 5723 5720 5716 5712 5708 5705 5702 5698 5694 5690 5685 5681 5678 5675 5672 5669 5666 5663 5660 5656 5653 5650 5647 5645 5644 5644 5642 5641 5639 5637 5635 5633 5632 5630 5629 5628 5627 5626 5625 5623 5622 5621 5620 5618 5617 5616 5615 5614 5613 5613 5612 5612 5612 5612 5612 5612 5612 5612 5612 5611 5611 5611 5611 5612 5613 5614 5615 5616 5617 5618 5619 5620 5621 5622 5623 5625 5627 5629 5631 5633 5634 5635 5637 5640 5641 5643 5644 5646 5649 5652 5654 5657
5739 5735 5732 5728 5724 5720 5716 5712 5708 5704 5700 5697 5693 5689 5684 5679 5675 5671 5669 5666 5663 5660 5656 5653 5650 5646 5643 5641 5639 5639 5638 5636 5634 5632 5630 5628 5626 5624 5622 5621 5619 5618 5617 5616 5614 5613 5612 5611 5609 5608 5606 5605 5605 5604 5603 5603 5602 5602 5602 5602 5602 5602 5602 5602 5602 5602 5602 5602 5603 5603 5604 5605 5606 5607 5608 5609 5611 5612 5613 5614 5615 5617 5619 5621 5624 5626 5628 5629 5631 5633 5635 5637 5638 5640 5643 5646 5649
5737 5733 5729 5725 5721 5716 5712 5708 5704 5700 5695 5691 5688 5685 5680 5673 5668 5665 5662 5659 5656 5653 5649 5646 5643 5639 5636 5634 5633 5632 5630 5628 5626 5624 5622 5620 5618 5616 5614 5613 5611 5609 5608 5606 5604 5603 5602 5601 5600 5598 5597 5596 5595 5594 5594 5593 5592 5592 5592 5592 5592 5592 5592 5592 5592 5592 5592 5592 5593 5593 5594 5595 5596 5597 5598 5599 5600 5602 5603 5605 5606 5608 5610 5612 5614 5616 5619 5621 5623 5625 5626 5628 5630 5632 5635 5637 5640
5733 5729 5725 5722 5717 5712 5707 5703 5699 5695 5690 5685 5681 5681 5677 5666 5661 5659 5655 5652 5649 5645 5642 5638 5634 5630 5628 5627 5625 5623 5621 5619 5617 5615 5613 5611 5610 5608 5606 5604 5602 5600 5599 5597 5595 5593 5592 5591 5590 5588 5587 5586 5585 5584 5584 5583 5582 5582 5582 5582 5582 5582 5582 5582 5582 5582 5582 5582 5582 5583 5583 5584 5585 5586 5587 5589 5590 5591 5593 5595 5597 5598 5600 5602 5604 5607 5609 5612 5614 5617 5618 5619 5621 5623 5626 5629 5631
5729 5726 5721 5717 5714 5708 5702 5697 5693 5688 5683 5679 5673 5673 5672 5660 5654 5654 5649 5645 5642 5638 5634 5630 5626 5622 5621 5620 5617 5614 5612 5610 5607 5605 5603 5602 5600 5598 5597 5595 5593 5591 5589 5588 5586 5584 5582 5580 5579 5577 5576 5575 5574 5574 5573 5572 5571 5571 5571 5571 5571 5571 5571 5571 5571 5571 5571 5571 5571 5571 5572 5573 5574 5575 5576 5578 5579 5581 5582 5584 5586 5588 5590 5592 5595 5597 5599 5602 5604 5607 5609 5611 5613 5614 5617 5620 5622
5725 5721 5717 5712 5709 5706 5699 5692 5688 5682 5677 5673 5667 5665 5664 5654 5648 5647 5641 5638 5635 5630 5626 5622 5618 5615 5614 5612 5609 5606 5603 5601 5598 5596 5594 5592 5590 5588 5586 5585 5583 5582 5579 5578 5576 5574 5572 5569 5568 5566 5565 5564 5563 5562 5561 5560 5559 5559 5559 5559 5559 5560 5560 5560 5559 5559 5559 5559 5559 5559 5560 5561 5562 5563 5565 5567 5568 5570 5572 5574 5576 5578 5579 5581 5584 5586 5589 5592 5594 5597 5600 5602 5604 5605 5608 5611 5613
5721 5717 5713 5708 5703 5701 5697 5689 5683 5678 5673 5669 5662 5659 5657 5649 5643 5639 5633 5630 5626 5621 5617 5613 5611 5608 5606 5604 5600 5597 5594 5592 5589 5586 5584 5582 5580 5578 5576 5574 5572 5571 5569 5567 5565 5562 5560 5558 5556 5555 5553 5552 5552 5551 5550 5549 5548 5548 5547 5547 5547 5546 5546 5547 5547 5547 5547 5547 5547 5548 5548 5549 5550 5551 5552 5554 5557 5559 5561 5563 5566 5567 5569 5571 5573 5576 5578 5581 5584 5587 5589 5592 5595 5596 5598 5602 5605
5719 5714 5709 5705 5700 5696 5693 5686 5677 5672 5667 5663 5656 5651 5649 5643 5638 5632 5626 5623 5618 5613 5609 5605 5603 5600 5597 5594 5591 5588 5585 5582 5580 5577 5575 5572 5570 5568 5565 5563 5561 5559 5557 5555 5552 5550 5548 5546 5545 5543 5542 5541 5540 5539 5539 5538 5538 5537 5537 5536 5535 5535 5534 5534 5534 5534 5534 5534 5535 5535 5536 5537 5538 5539 5540 5542 5544 5547 5549 5552 5555 5556 5558 5561 5563 5565 5567 5570 5573 5576 5579 5581 5585 5588 5589 5592 5596
5720 5715 5709 5704 5698 5691 5687 5682 5673 5665 5660 5655 5650 5644 5641 5637 5632 5626 5620 5615 5610 5605 5600 5597 5594 5590 5587 5585 5582 5579 5576 5573 5570 5568 5565 5562 5560 5557 5554 5551 5548 5546 5544 5542 5540 5538 5537 5535 5533 5532 5530 5529 5529 5528 5528 5527 5527 5526 5526 5525 5524 5524 5523 5522 5522 5521 5521 5521 5522 5522 5522 5524 5525 5526 5528 5530 5532 5535 5538 5540 5543 5545 5547 5550 5553 5556 5558 5560 5562 5565 5568 5571 5574 5579 5581 5583 5587
5716 5711 5706 5701 5696 5688 5681 5675 5668 5661 5654 5648 5642 5637 5633 5629 5626 5621 5614 5608 5603 5598 5593 5589 5586 5582 5579 5576 5572 5570 5567 5564 5561 5558 5556 5552 5549 5545 5542 5538 5536 5533 5531 5530 5529 5526 5524 5523 5522 5520 5519 5518 5517 5516 5516 5515 5515 5514 5513 5513 5512 5511 5511 5511 5510 5510 5510 5510 5510 5509 5510 5510 5511 5512 5514 5516 5518 5522 5525 5528 5531 5534 5536 5539 5542 5545 5549 5551 5553 5555 5557 5560 5564 5568 5572 5575 5578
5712 5706 5701 5695 5690 5685 5676 5667 5660 5654 5649 5642 5635 5629 5625 5620 5616 5612 5607 5601 5596 5591 5587 5583 5578 5575 5571 5567 5564 5561 5558 5555 5552 5549 5545 5542 5538 5534 5530 5527 5524 5522 5520 5519 5517 5514 5513 5512 5510 5508 5506 5505 5503 5502 5501 5501 5500 5500 5499 5498 5498 5498 5498 5498 5498 5498 5498 5498 5498 5497 5497 5498 5499 5499 5500 5502 5504 5508 5512 5515 5519 5522 5525 5527 5530 5533 5537 5540 5543 5546 5548 5550 5553 5557 5562 5565 5568
5708 5703 5697 5691 5684 5680 5673 5663 5654 5646 5640 5635 5627 5620 5616 5612 5607 5601 5596 5592 5587 5583 5580 5576 5572 5568 5564 5560 5556 5552 5549 5546 5542 5539 5535 5532 5528 5524 5520 5517 5514 5511 5509 5508 5505 5502 5500 5499 5497 5495 5493 5491 5489 5487 5486 5485 5484 5483 5483 5482 5482 5482 5483 5484 5485 5486 5485 5485 5484 5483 5483 5484 5485 5486 5488 5490 5492 5494 5498 5502 5506 5509 5511 5513 5516 5520 5523 5526 5530 5534 5537 5540 5543 5547 5552 5556 5558
5705 5698 5692 5687 5680 5674 5668 5659 5649 5641 5633 5627 5620 5612 5608 5603 5598 5592 5587 5582 5578 5575 5571 5567 5564 5560 5556 5552 5549 5544 5540 5536 5533 5529 5525 5522 5518 5514 5511 5507 5504 5501 5499 5496 5493 5490 5488 5486 5484 5482 5479 5477 5475 5472 5470 5468 5467 5466 5465 5465 5464 5464 5465 5467 5469 5471 5470 5469 5469 5467 5468 5469 5471 5473 5475 5476 5478 5480 5483 5487 5490 5494 5497 5499 5503 5506 5510 5513 5516 5520 5524 5528 5532 5537 5542 5546 5547
5700 5694 5687 5682 5675 5669 5665 5656 5645 5635 5626 5619 5613 5605 5600 5596 5591 5586 5581 5576 5571 5567 5563 5559 5555 5552 5549 5545 5541 5536 5532 5527 5523 5519 5516 5512 5508 5505 5501 5498 5494 5490 5488 5485 5481 5478 5476 5473 5471 5469 5466 5463 5460 5457 5454 5452 5450 5449 5447 5447 5447 5446 5447 5449 5451 5453 5453 5451 5451 5451 5451 5454 5456 5458 5460 5461 5463 5465 5467 5471 5475 5478 5481 5484 5488 5493 5497 5500 5503 5507 5509 5514 5520 5525 5530 5535 5537
5696 5689 5683 5677 5670 5661 5655 5650 5641 5631 5621 5611 5604 5597 5593 5590 5585 5579 5574 5568 5564 5559 5555 5551 5548 5545 5542 5538 5533 5528 5523 5518 5514 5509 5505 5502 5498 5494 5490 5486 5483 5479 5476 5473 5469 5467 5464 5461 5459 5456 5453 5450 5447 5443 5439 5436 5434 5434 5432 5431 5431 5429 5429 5432 5433 5434 5435 5433 5432 5433 5434 5436 5439 5440 5442 5444 5447 5449 5452 5455 5459 5462 5466 5469 5472 5477 5483 5487 5490 5493 5496 5500 5505 5511 5517 5523 5526
5694 5686 5678 5671 5665 5656 5647 5639 5632 5626 5619 5607 5596 5589 5587 5584 5579 5572 5566 5560 5556 5552 5548 5544 5541 5538 5534 5529 5524 5518 5513 5509 5504 5499 5495 5490 5486 5482 5478 5475 5471 5467 5464 5461 5457 5454 5451 5448 5445 5442 5440 5436 5433 5429 5425 5421 5419 5418 5417 5416 5415 5414 5414 5417 5417 5418 5418 5416 5415 5416 5417 5419 5420 5422 5425 5426 5428 5431 5434 5437 5441 5446 5449 5453 5456 5461 5467 5472 5476 5479 5483 5486 5491 5496 5503 5509 5514
5690 5682 5674 5665 5657 5650 5641 5632 5622 5616 5612 5603 5590 5580 5579 5578 5572 5565 5559 5554 5549 5545 5542 5538 5535 5530 5525 5520 5515 5509 5504 5499 5494 5489 5484 5480 5476 5472 5468 5464 5459 5455 5452 5448 5443 5439 5436 5433 5430 5427 5424 5422 5418 5415 5411 5406 5403 5402 5401 5400 5399 5399 5399 5402 5402 5402 5402 5401 5400 5400 5401 5403 5404 5405 5408 5408 5409 5410 5413 5417 5422 5426 5431 5436 5439 5443 5449 5455 5460 5464 5468 5472 5476 5481 5486 5493 5500
5684 5677 5668 5660 5651 5644 5636 5628 5615 5606 5602 5596 5586 5575 5570 5570 5566 5558 5553 5548 5544 5540 5536 5532 5528 5522 5517 5511 5506 5501 5495 5490 5485 5480 5475 5471 5466 5462 5458 5453 5448 5444 5440 5436 5431 5426 5422 5419 5416 5413 5410 5407 5404 5400 5396 5391 5387 5386 5385 5385 5385 5384 5384 5386 5387 5385 5385 5385 5385 5385 5386 5387 5389 5389 5391 5391 5391 5391 5394 5397 5402 5406 5411 5416 5421 5424 5430 5437 5443 5447 5452 5456 5461 5467 5471 5476 5485
5678 5671 5663 5655 5647 5639 5631 5623 5611 5601 5597 5592 5584 5574 5566 5564 5560 5553 5548 5543 5539 5535 5530 5525 5520 5515 5509 5503 5497 5492 5486 5481 5476 5472 5467 5462 5457 5452 5447 5442 5437 5432 5427 5423 5418 5413 5408 5405 5401 5398 5395 5392 5388 5384 5380 5376 5372 5370 5370 5369 5370 5371 5368 5369 5370 5369 5368 5369 5369 5370 5371 5372 5374 5374 5374 5374 5374 5374 5376 5379 5382 5386 5391 5396 5401 5404 5410 5417 5423 5429 5434 5439 5445 5451 5456 5462 5470
5672 5667 5660 5651 5642 5634 5627 5621 5611 5600 5593 5586 5579 5570 5561 5558 5556 5548 5542 5538 5533 5528 5523 5518 5512 5507 5501 5495 5489 5483 5478 5473 5468 5463 5458 5453 5447 5442 5436 5431 5426 5421 5414 5409 5404 5399 5394 5390 5387 5383 5380 5376 5372 5368 5364 5360 5357 5355 5354 5353 5354 5355 5353 5352 5352 5352 5353 5353 5353 5355 5356 5357 5359 5358 5357 5357 5357 5358 5359 5361 5364 5367 5371 5375 5380 5384 5389 5395 5401 5408 5414 5420 5426 5434 5441 5448 5455
5667 5663 5658 5651 5641 5633 5626 5619 5612 5603 5594 5584 5575 5566 5555 5550 5550 5543 5536 5532 5527 5520 5515 5510 5505 5499 5494 5488 5482 5476 5470 5465 5459 5454 5448 5443 5437 5431 5424 5418 5413 5408 5402 5396 5391 5386 5381 5377 5374 5370 5366 5362 5358 5354 5350 5347 5344 5341 5339 5337 5337 5339 5338 5336 5335 5336 5338 5338 5338 5341 5342 5343 5343 5342 5341 5342 5342 5342 5343 5345 5347 5349 5352 5355 5359 5363 5368 5373 5379 5386 5392 5399 5406 5415 5423 5431 5439
5661 5656 5652 5647 5640 5632 5625 5617 5608 5599 5592 5583 5573 5564 5553 5544 5541 5537 5530 5525 5520 5513 5508 5503 5498 5492 5486 5481 5475 5468 5461 5455 5449 5443 5436 5430 5423 5416 5409 5404 5399 5394 5389 5383 5377 5372 5368 5364 5360 5356 5353 5348 5344 5341 5338 5335 5332 5329 5327 5324 5323 5324 5323 5321 5321 5323 5324 5323 5324 5326 5327 5328 5328 5327 5328 5329 5329 5329 5329 5331 5332 5334 5336 5339 5342 5345 5349 5353 5358 5364 5370 5377 5385 5394 5404 5412 5421
5656 5649 5642 5637 5630 5622 5615 5607 5596 5586 5578 5572 5564 5558 5550 5541 5535 5530 5525 5519 5513 5508 5502 5497 5491 5486 5479 5473 5466 5459 5452 5444 5437 5430 5422 5415 5408 5401 5396 5390 5384 5379 5374 5369 5363 5358 5354 5350 5346 5342 5339 5336 5331 5328 5326 5323 5320 5317 5314 5312 5311 5311 5310 5309 5310 5312 5312 5312 5312 5314 5315 5316 5316 5316 5317 5318 5318 5317 5318 5319 5320 5322 5324 5325 5328 5330 5334 5337 5340 5345 5349 5356 5364 5373 5383 5392 5402
5652 5642 5632 5620 5609 5600 5593 5586 5579 5574 5569 5564 5556 5549 5544 5538 5531 5525 5519 5513 5508 5502 5497 5491 5485 5479 5472 5465 5458 5450 5443 5434 5426 5417 5410 5402 5395 5389 5382 5375 5368 5363 5358 5354 5349 5344 5339 5336 5332 5329 5327 5324 5320 5316 5314 5311 5309 5306 5303 5301 5300 5299 5299 5299 5300 5302 5302 5302 5303 5304 5305 5306 5306 5307 5307 5308 5308 5308 5308 5310 5311 5312 5313 5315 5316 5318 5321 5324 5326 5330 5334 5339 5346 5354 5362 5371 5381
5641 5630 5619 5609 5596 5584 5577 5571 5565 5560 5558 5557 5551 5543 5536 5530 5524 5518 5512 5506 5501 5496 5490 5484 5477 5470 5464 5456 5449 5440 5432 5424 5414 5406 5398 5391 5384 5377 5369 5362 5355 5349 5344 5339 5334 5329 5325 5322 5319 5316 5314 5312 5308 5305 5303 5301 5299 5296 5293 5292 5291 5290 5290 5291 5292 5293 5293 5294 5295 5297 5298 5298 5299 5299 5299 5300 5300 5300 5301 5303 5304 5304 5305 5306 5308 5310 5312 5314 5316 5319 5322 5327 5333 5339 5345 5352 5361
5637 5627 5617 5610 5600 5586 5574 5566 5557 5549 5546 5547 5545 5538 5529 5521 5515 5510 5504 5499 5494 5489 5483 5477 5469 5462 5454 5445 5437 5428 5419 5411 5403 5395 5388 5382 5374 5366 5358 5351 5344 5337 5332 5326 5321 5316 5312 5310 5308 5305 5303 5301 5298 5296 5293 5291 5289 5287 5285 5284 5283 5282 5283 5284 5285 5286 5287 5288 5289 5290 5291 5292 5292 5293 5294 5294 5294 5295 5296 5298 5299 5299 5300 5301 5302 5303 5305 5306 5308 5310 5314 5318 5323 5328 5333 5338 5346
5636 5628 5619 5609 5599 5589 5579 5571 5562 5551 5543 5541 5538 5532 5525 5517 5510 5503 5496 5491 5486 5480 5473 5466 5459 5452 5443 5434 5425 5416 5408 5400 5392 5384 5378 5370 5362 5355 5347 5340 5333 5327 5321 5317 5312 5308 5304 5301 5299 5296 5294 5292 5290 5288 5285 5283 5281 5280 5279 5277 5276 5277 5278 5279 5280 5280 5281 5282 5284 5285 5286 5287 5288 5288 5289 5289 5290 5291 5292 5293 5294 5295 5296 5297 5298 5298 5299 5301 5302 5304 5307 5310 5314 5318 5322 5326 5333
5630 5624 5616 5606 5595 5583 5575 5570 5565 5555 5542 5535 5531 5526 5520 5512 5502 5495 5488 5482 5476 5469 5462 5456 5449 5440 5432 5423 5414 5405 5396 5388 5380 5372 5364 5357 5350 5343 5336 5329 5322 5317 5312 5307 5304 5301 5298 5294 5292 5289 5287 5285 5283 5281 5279 5277 5276 5275 5274 5273 5273 5273 5274 5274 5275 5276 5276 5277 5278 5280 5281 5282 5283 5284 5284 5285 5286 5287 5288 5289 5290 5290 5291 5293 5293 5294 5295 5296 5297 5299 5301 5303 5307 5310 5312 5316 5322
5628 5617 5608 5602 5595 5585 5573 5563 5556 5548 5537 5530 5527 5520 5511 5503 5494 5487 5482 5474 5466 5459 5452 5446 5438 5429 5420 5411 5401 5392 5383 5375 5368 5362 5355 5348 5342 5335 5329 5322 5315 5310 5304 5300 5298 5295 5292 5289 5287 5284 5282 5280 5279 5277 5276 5274 5273 5272 5271 5271 5270 5270 5270 5270 5270 5271 5272 5273 5273 5274 5276 5277 5278 5279 5280 5280 5281 5283 5284 5284 5285 5286 5287 5288 5289 5290 5291 5292 5293 5295 5297 5299 5301 5303 5305 5309 5313
5629 5619 5608 5599 5590 5580 5569 5558 5548 5541 5532 5523 5520 5517 5509 5499 5490 5482 5474 5467 5459 5451 5443 5435 5426 5417 5408 5398 5389 5380 5372 5365 5359 5353 5347 5341 5335 5329 5323 5317 5311 5306 5301 5297 5294 5291 5289 5286 5283 5281 5279 5277 5276 5275 5274 5272 5271 5270 5269 5269 5268 5267 5267 5266 5266 5266 5267 5268 5269 5269 5270 5271 5273 5274 5275 5276 5277 5278 5279 5279 5280 5282 5283 5284 5285 5286 5287 5288 5289 5291 5292 5294 5296 5298 5300 5304 5307
5628 5622 5614 5603 5591 5579 5568 5559 5548 5540 5531 5518 5510 5511 5507 5497 5486 5477 5469 5461 5452 5442 5434 5426 5417 5408 5398 5388 5379 5371 5364 5357 5351 5344 5339 5333 5328 5323 5318 5313 5308 5304 5299 5295 5292 5289 5286 5284 5281 5279 5278 5276 5274 5272 5270 5269 5268 5267 5266 5265 5264 5263 5262 5262 5261 5261 5262 5263 5263 5264 5265 5266 5267 5269 5270 5271 5272 5273 5274 5275 5276 5278 5279 5280 5281 5282 5283 5284 5286 5287 5289 5290 5292 5293 5296 5300 5303
5625 5617 5607 5598 5591 5582 5573 5564 5552 5539 5529 5518 5506 5502 5502 5493 5482 5473 5465 5456 5447 5437 5427 5418 5409 5400 5391 5381 5373 5365 5358 5352 5345 5339 5333 5328 5323 5318 5314 5310 5306 5302 5298 5294 5291 5288 5285 5283 5280 5278 5276 5274 5272 5270 5268 5266 5265 5263 5262 5260 5259 5258 5257 5256 5256 5255 5256 5257 5257 5258 5259 5260 5262 5263 5265 5266 5268 5269 5270 5271 5273 5274 5275 5276 5277 5278 5279 5281 5282 5284 5285 5287 5288 5290 5293 5296 5298
5621 5610 5601 5591 5582 5574 5566 5559 5551 5540 5530 5520 5506 5496 5492 5488 5478 5470 5461 5451 5441 5432 5421 5411 5402 5393 5385 5377 5370 5361 5354 5348 5342 5336 5331 5326 5321 5316 5312 5308 5305 5301 5298 5294 5291 5288 5285 5282 5280 5277 5275 5272 5270 5267 5265 5263 5261 5259 5257 5256 5254 5253 5251 5250 5249 5249 5249 5250 5251 5252 5253 5255 5256 5258 5259 5261 5263 5265 5266 5267 5269 5270 5271 5273 5274 5275 5276 5277 5278 5280 5282 5283 5285 5287 5289 5292 5294